[[{"header":{"parameterUnit":"m.s-1","parameterCategory":1,"la1":30.2991,"la2":30.254,"lo1":-89.0895,"lo2":-89.0444,"dx":0.0017,"dy":0.0017,"nx":28,"ny":28,"refTime":"2023-01-17T09:00:00:Z","depth":0,"parameterNumber":2,"parameterNumberName":"U-component_of_WINDS"},"data":[0,0,0,0,0,0,0,0,0,0,0,0,0,0,0,0,0,0,0,0,0,0,0,0,0,0,0,0,0,0,0,0,0,0,0,0,0,0,0,0,0,0,0,0,0,0,0,0,0,0,0,0,0,0,0,0,0,0,-3.0443,-3.0444,0,-3.0552,-3.0553,-3.0554,-3.0571,-3.057,-3.0569,-3.0568,-3.0677,-3.0681,-3.0685,0,0,0,0,0,0,0,0,0,0,0,0,0,-3.0246,-3.025,-3.0443,-3.0444,-3.0445,-3.0552,-3.0553,-3.0555,-3.0571,-3.057,-3.0569,-3.0568,-3.0676,-3.0681,-3.0685,0,0,0,0,0,0,0,0,0,0,0,0,0,-3.0341,-3.0251,-3.0442,-3.0467,-3.047,-3.0551,-3.0553,-3.0555,-3.0572,-3.057,-3.0569,-3.0567,-3.0675,-3.068,-3.0686,-3.075,0,0,-3.0703,-3.0706,0,0,0,0,0,0,0,0,-3.0335,-3.0348,-3.0462,-3.0465,-3.0469,-3.0547,-3.0524,-3.062,-3.0572,-3.0533,-3.0568,-3.0567,-3.0635,-3.0644,-3.0667,-3.0755,-3.076,-3.0704,-3.0707,-3.071,-3.0711,0,0,0,0,0,0,0,-3.0329,-3.0343,-3.0486,-3.0463,-3.0468,-3.0471,-3.0483,-3.0542,-3.059,-3.0536,-3.0538,-3.055,-3.0636,-3.0662,-3.067,-3.0761,-3.0703,-3.0709,-3.0712,-3.0714,-3.0906,-3.0908,0,0,0,0,0,0,-3.0318,-3.0338,-3.0482,-3.0489,-3.0397,-3.0476,-3.0489,-3.0523,-3.059,-3.0599,-3.0552,-3.0551,-3.0653,-3.0663,-3.0674,-3.0752,-3.071,-3.0715,-3.0718,-3.0904,-3.0906,-3.0908,0,0,0,0,0,0,-3.0314,-3.0331,-3.0478,-3.0414,-3.0433,-3.0481,-3.0519,-3.0526,-3.0551,-3.0602,-3.061,-3.0569,-3.0652,-3.0666,-3.0731,-3.0756,-3.0717,-3.0723,-3.0902,-3.0905,-3.0907,-3.091,0,0,0,0,0,0,-3.0308,-3.0329,-3.0355,-3.0414,-3.0436,-3.0534,-3.052,-3.0529,-3.0561,-3.0561,-3.062,-3.0628,-3.0652,-3.0722,-3.0736,-3.0763,-3.0727,-3.09,-3.0904,-3.0907,-3.0908,-3.0912,-3.0916,0,0,0,0,0,-3.0301,-3.0351,-3.0356,-3.0373,-3.0469,-3.0535,-3.0548,-3.0575,-3.0563,-3.0589,-3.0621,-3.0626,-3.0752,-3.0729,-3.0745,-3.0774,-3.0899,-3.0903,-3.0906,-3.0906,-3.0911,-3.0916,0,0,0,0,0,0,-3.0292,-3.0359,-3.0365,-3.0436,-3.048,-3.0538,-3.0571,-3.058,-3.0627,-3.0625,-3.0656,-3.0669,-3.0732,-3.076,-3.0733,-3.0839,-3.0824,-3.0831,-3.0818,-3.0824,-3.0828,-3.0819,-3.0732,0,0,0,0,0,-3.0298,-3.0347,-3.0403,-3.046,-3.0482,-3.0522,-3.0552,-3.0569,-3.0616,-3.0634,-3.0671,-3.0715,-3.0764,-3.0796,-3.0844,-3.0913,-3.0925,-3.094,-3.0945,-3.0948,-3.0953,-3.099,-3.0997,-3.0921,-3.0921,-3.0921,0,0,-3.0311,-3.0354,-3.0383,-3.0459,-3.0495,-3.0544,-3.0538,-3.059,-3.0626,-3.0642,-3.0705,-3.0734,-3.0785,-3.0852,-3.0883,-3.0877,-3.0977,-3.0953,-3.0955,-3.0958,-3.0994,-3.1001,-3.1008,-3.0923,-3.0923,-3.0922,0,0,-3.036,-3.0398,-3.0449,-3.0485,-3.054,-3.0567,-3.0579,-3.0637,-3.0656,-3.0721,-3.0733,-3.0777,-3.0861,-3.0897,-3.0926,-3.0988,-3.0994,-3.1003,-3.1024,-3.106,-3.1066,-3.1071,-3.1091,-3.1099,-3.1009,-3.1009,-3.1009,0,-3.0368,-3.0444,-3.0473,-3.0525,-3.0557,-3.0575,-3.0626,-3.066,-3.0727,-3.0749,-3.0742,-3.0848,-3.0884,-3.0958,-3.0973,-3.0997,-3.1011,-3.0996,-3.1063,-3.1068,-3.1074,-3.1094,-3.1101,-3.1009,-3.1009,-3.1009,-3.1009,0,-3.0451,-3.0503,-3.0537,-3.0602,-3.0639,-3.069,-3.0727,-3.076,-3.0775,-3.0802,-3.0867,-3.0911,-3.0968,-3.0987,-3.1002,-3.1064,-3.1058,-3.1056,-3.1042,-3.1081,-3.11,-3.1108,-3.101,-3.101,-3.101,-3.101,0,0,-3.0495,-3.0577,-3.0589,-3.0618,-3.068,-3.072,-3.0772,-3.0829,-3.0856,-3.0902,-3.0945,-3.1017,-3.1016,-3.1049,-3.1067,-3.1099,-3.1143,-3.1093,-3.1095,-3.1099,-3.1213,-3.1212,-3.122,-3.1149,-3.115,-3.1152,-3.1208,0,-3.0549,-3.0642,-3.0671,-3.0748,-3.0795,-3.0813,-3.0858,-3.0901,-3.0928,-3.0972,-3.1002,-3.1051,-3.1047,-3.1067,-3.1099,-3.1131,-3.1166,-3.1128,-3.1187,-3.1189,-3.1172,-3.1231,-3.123,-3.1281,-3.1216,-3.1217,-3.1218,0,-3.0624,-3.0672,-3.0754,-3.081,-3.0831,-3.0871,-3.0925,-3.0967,-3.1015,-3.1033,-3.107,-3.1086,-3.114,-3.1124,-3.1197,-3.117,-3.1197,-3.1216,-3.1219,-3.1223,-3.1204,-3.1235,-3.1298,-3.1305,-3.123,-3.1229,-3.1228,0,-3.0645,-3.0731,-3.0791,-3.0816,-3.0883,-3.091,-3.0939,-3.0987,-3.1019,-3.1066,-3.1086,-3.1139,-3.1167,-3.1207,-3.1236,-3.1222,-3.1306,-3.1293,-3.1321,-3.132,-3.1336,-3.1334,-3.1402,-3.1356,-3.1356,-3.1356,-3.1356,0,-3.0701,-3.075,-3.0801,-3.0838,-3.0893,-3.0926,-3.0979,-3.1009,-3.1051,-3.1093,-3.1113,-3.1151,-3.1189,-3.1233,-3.1256,-3.1312,-3.1325,-3.134,-3.1345,-3.1337,-3.1335,-3.1353,-3.1349,-3.1358,-3.1358,-3.1357,-3.1357,0,-3.0733,-3.077,-3.0836,-3.0894,-3.091,-3.0948,-3.0998,-3.1034,-3.1062,-3.1115,-3.1129,-3.1174,-3.1226,-3.126,-3.1327,-3.1343,-3.1403,-3.1409,-3.1387,-3.1389,-3.1414,-3.141,-3.1494,-3.1506,-3.1454,-3.1455,-3.1455,0,-3.0766,-3.0804,-3.0867,-3.0897,-3.0926,-3.0974,-3.1007,-3.1041,-3.1074,-3.1132,-3.1161,-3.1215,-3.1259,-3.1342,-3.1379,-3.143,-3.1436,-3.1461,-3.1443,-3.1433,-3.1433,-3.143,-3.1433,-3.1463,-3.1464,-3.1464,-3.1464,0,-3.0818,-3.0835,-3.0882,-3.0935,-3.0974,-3.1018,-3.1061,-3.1084,-3.1125,-3.1162,-3.1216,-3.1251,-3.1319,-3.1371,-3.1426,-3.1455,-3.1466,-3.147,-3.1479,-3.147,-3.1455,-3.1461,-3.1393,-3.1468,-3.1467,-3.1467,-3.1467,-3.1467,-3.085,-3.0885,-3.0934,-3.0986,-3.1022,-3.1063,-3.1099,-3.1132,-3.1179,-3.1237,-3.1254,-3.131,-3.1357,-3.1432,-3.1462,-3.1506,-3.1502,-3.1515,-3.1518,-3.1521,-3.152,-3.145,-3.1516,-3.1516,-3.1516,-3.1516,-3.1516,0,-3.0903,-3.0936,-3.0983,-3.1043,-3.1084,-3.1093,-3.1141,-3.1174,-3.1223,-3.1267,-3.1311,-3.1372,-3.1424,-3.1466,-3.1518,-3.1545,-3.1551,-3.1557,-3.1555,-3.1561,-3.1521,-3.1507,-3.1551,-3.1551,-3.1551,-3.1551,-3.1551,-3.1551,-3.0934,-3.0993,-3.1015,-3.1091,-3.1124,-3.1179,-3.1206,-3.1243,-3.1277,-3.1346,-3.1389,-3.1416,-3.1459,-3.1515,-3.1562,-3.1573,-3.1591,-3.1595,-3.1607,-3.1568,-3.1564,-3.156,-3.1547,-3.1599,-3.1599,-3.1643,-3.1644,-3.1644]},{"header":{"parameterUnit":"m.s-1","parameterCategory":1,"la1":30.2991,"la2":30.254,"lo1":-89.0895,"lo2":-89.0444,"dx":0.0017,"dy":0.0017,"nx":28,"ny":28,"refTime":"2023-01-17T09:00:00:Z","depth":0,"parameterNumber":3,"parameterNumberName":"V-component_of_WINDS"},"data":[0,0,0,0,0,0,0,0,0,0,0,0,0,0,0,0,0,0,0,0,0,0,0,0,0,0,0,0,0,0,0,0,0,0,0,0,0,0,0,0,0,0,0,0,0,0,0,0,0,0,0,0,0,0,0,0,0,0,3.324,3.324,0,3.3243,3.3243,3.3243,3.3194,3.3193,3.3192,3.319,3.3193,3.3194,3.3195,0,0,0,0,0,0,0,0,0,0,0,0,0,3.3194,3.3195,3.324,3.324,3.324,3.3243,3.3243,3.3243,3.3194,3.3193,3.3191,3.319,3.3192,3.3194,3.3195,0,0,0,0,0,0,0,0,0,0,0,0,0,3.3207,3.3196,3.324,3.3216,3.3214,3.3243,3.3243,3.3243,3.3195,3.3193,3.3191,3.3189,3.3192,3.3194,3.3196,3.3247,0,0,3.3202,3.3202,0,0,0,0,0,0,0,0,3.3207,3.3209,3.322,3.3218,3.3216,3.3216,3.3227,3.3244,3.3195,3.3202,3.319,3.3188,3.3202,3.3203,3.3208,3.3247,3.3247,3.3202,3.3203,3.3204,3.3204,0,0,0,0,0,0,0,3.3206,3.3209,3.3241,3.322,3.3217,3.3206,3.3206,3.323,3.3213,3.3201,3.3198,3.3199,3.3201,3.3206,3.3208,3.3247,3.3202,3.3203,3.3205,3.3205,3.3332,3.3334,0,0,0,0,0,0,3.3208,3.3208,3.3241,3.3241,3.3206,3.3208,3.3208,3.3218,3.3213,3.321,3.3201,3.3197,3.3204,3.3205,3.3208,3.3269,3.3204,3.3206,3.3207,3.3329,3.3332,3.3334,0,0,0,0,0,0,3.3207,3.3211,3.3241,3.3224,3.3227,3.3211,3.3223,3.3219,3.3224,3.3212,3.3209,3.3209,3.3202,3.3205,3.3238,3.3269,3.3206,3.3208,3.3327,3.333,3.3333,3.3392,0,0,0,0,0,0,3.3206,3.3211,3.323,3.3224,3.3228,3.3271,3.3225,3.322,3.3228,3.3223,3.3219,3.3217,3.3201,3.3236,3.324,3.327,3.321,3.3324,3.3328,3.3332,3.3387,3.3397,3.3405,0,0,0,0,0,3.3205,3.3246,3.3231,3.3236,3.3251,3.3273,3.3275,3.3256,3.3231,3.325,3.3242,3.3217,3.3264,3.3239,3.3244,3.3275,3.3322,3.3327,3.3332,3.3383,3.3395,3.3405,0,0,0,0,0,0,3.3255,3.3245,3.3228,3.3269,3.3273,3.3265,3.3288,3.3268,3.3279,3.3273,3.3249,3.3249,3.3287,3.3284,3.3256,3.3326,3.3289,3.3295,3.3326,3.3337,3.3346,3.3347,3.3211,0,0,0,0,0,3.3271,3.329,3.3279,3.3316,3.3319,3.3304,3.3312,3.3298,3.33,3.3301,3.3296,3.3299,3.3315,3.3326,3.3339,3.3386,3.3386,3.341,3.3419,3.3427,3.3433,3.346,3.3471,3.3351,3.3351,3.335,0,0,3.3304,3.3301,3.3314,3.3327,3.3327,3.3348,3.3305,3.3328,3.3344,3.3304,3.3336,3.3333,3.3335,3.3376,3.3394,3.3375,3.3466,3.3433,3.3439,3.3441,3.3466,3.3478,3.3488,3.3354,3.3353,3.3353,0,0,3.3375,3.3373,3.3405,3.3407,3.341,3.3399,3.3407,3.3403,3.34,3.3431,3.3403,3.3421,3.3448,3.3452,3.3457,3.3532,3.351,3.3537,3.3584,3.3611,3.3621,3.3629,3.3658,3.3668,3.3543,3.3543,3.3543,0,3.3415,3.3445,3.3424,3.345,3.3457,3.3424,3.3457,3.346,3.3466,3.3473,3.3451,3.3486,3.3485,3.3528,3.3547,3.3551,3.3561,3.3538,3.3621,3.3629,3.3637,3.3664,3.3675,3.3547,3.3546,3.3546,3.3546,0,3.3496,3.3518,3.3543,3.3552,3.3562,3.3591,3.3575,3.3588,3.3573,3.3565,3.3599,3.3597,3.3611,3.362,3.3604,3.3661,3.365,3.3625,3.3588,3.3652,3.3677,3.3687,3.3552,3.355,3.3549,3.3549,0,0,3.3598,3.3596,3.3606,3.3611,3.3612,3.3628,3.3656,3.3671,3.3683,3.3689,3.3713,3.3738,3.3716,3.3723,3.3707,3.3731,3.3793,3.3704,3.3703,3.3722,3.3858,3.3878,3.389,3.3778,3.378,3.3782,3.3859,0,3.3669,3.3718,3.3701,3.3751,3.3772,3.3741,3.3766,3.377,3.3764,3.3781,3.3774,3.3793,3.3761,3.3766,3.3787,3.3781,3.3821,3.3775,3.3802,3.3803,3.3804,3.3903,3.3924,3.3997,3.3868,3.387,3.3871,0,3.3758,3.3769,3.3822,3.3821,3.3829,3.3852,3.3865,3.3881,3.3886,3.388,3.3888,3.3869,3.3898,3.386,3.39,3.387,3.388,3.3879,3.3881,3.3884,3.3842,3.3911,3.4019,3.4031,3.3886,3.3885,3.3884,0,3.383,3.3858,3.3894,3.3898,3.3898,3.3915,3.3916,3.3918,3.3929,3.394,3.3947,3.3961,3.3969,3.3981,3.3967,3.394,3.401,3.397,3.4008,3.4008,3.4025,3.4024,3.4138,3.4028,3.4028,3.4028,3.4028,0,3.3912,3.3946,3.3927,3.3949,3.3986,3.3967,3.4004,3.4002,3.4005,3.4026,3.4,3.4021,3.4,3.4019,3.4008,3.4045,3.4048,3.4045,3.4042,3.4048,3.4049,3.4056,3.4051,3.4031,3.403,3.403,3.4029,0,3.3999,3.3987,3.4025,3.4022,3.4022,3.4051,3.4049,3.407,3.4062,3.409,3.4096,3.4085,3.4106,3.4093,3.4114,3.4107,3.4156,3.4144,3.4154,3.4152,3.4191,3.4188,3.4314,3.4331,3.4209,3.421,3.4211,0,3.4053,3.4079,3.408,3.4093,3.4096,3.4116,3.4128,3.4109,3.4122,3.413,3.4151,3.417,3.4185,3.4221,3.4215,3.4232,3.4223,3.4266,3.4225,3.4232,3.4226,3.4225,3.4229,3.4275,3.4276,3.4277,3.4278,0,3.415,3.4144,3.4161,3.4177,3.4191,3.4203,3.4212,3.4224,3.4206,3.4222,3.4244,3.4256,3.4279,3.4299,3.4314,3.4315,3.4295,3.4291,3.4301,3.4308,3.4314,3.4314,3.4179,3.4288,3.4287,3.4286,3.4286,3.4286,3.4224,3.4246,3.4251,3.4272,3.4277,3.4287,3.4308,3.4303,3.4322,3.434,3.4328,3.4355,3.436,3.4378,3.4382,3.4404,3.4386,3.44,3.4404,3.4408,3.4415,3.431,3.4406,3.4406,3.4405,3.4405,3.4405,0,3.4322,3.4324,3.4343,3.4358,3.4375,3.4354,3.4363,3.4379,3.4403,3.441,3.4426,3.4453,3.4473,3.4469,3.4488,3.4506,3.4497,3.4512,3.4511,3.4512,3.4428,3.4418,3.4519,3.4519,3.4519,3.4519,3.4518,3.4518,3.4375,3.4413,3.4408,3.4448,3.445,3.4477,3.4485,3.4494,3.45,3.4531,3.4548,3.4546,3.4549,3.4568,3.4586,3.4584,3.4593,3.4612,3.4607,3.4529,3.4518,3.4507,3.4498,3.4613,3.4613,3.469,3.469,3.4691]}]]